Regional Weather Roundup
Issued by NWS

Home | Current Version | Previous Version | Graphics & Text | Print | Product List | Glossary On
Versions: 1 2 3 4 5 6 7 8 9 10 11 12 13 14 15 16 17 18 19 20 21 22 23 24 25 26 27 28 29 30 31 32 33 34 35 36 37 38 39 40 41 42 43 44 45 46 47 48 49 50
000
ASUS43 KIND 280009
RWRIN

WEATHER ROUNDUP FOR INDIANA
NATIONAL WEATHER SERVICE INDIANAPOLIS IN
800 PM EDT MON JUL 27 2015

NOTE: "FAIR" INDICATES FEW OR NO CLOUDS BELOW 12,000 FEET WITH NO
SIGNIFICANT WEATHER AND/OR OBSTRUCTIONS TO VISIBILITY.

* - STATION DOES NOT REPORT WEATHER SUCH AS PRECIPITATION OR FOG.

+ - STATION NOT QUALITY CONTROLLED BY THE NATIONAL WEATHER SERVICE.
    USE DATA WITH CAUTION...ESPECIALLY DEWPOINT AND RELATIVE
    HUMIDITY OBSERVATIONS.

INZ001>003-010>013-019-020-280100-
NORTHWEST INDIANA

CITY           SKY/WX    TMP DP  RH WIND       PRES   REMARKS
GARY /AIRPORT/ PTSUNNY   79  70  73 NE8       29.99R
KNOX *+        MOSUNNY   81  64  57 E5        29.97R
LA PORTE +     MOSUNNY   80  68  66 E3        29.99S
6HR MIN TEMP:  80; 6HR MAX TEMP:  87;

MICHIGAN CITY+ MOSUNNY   77  68  73 CALM      29.99R
MONTICELLO +   MOSUNNY   82  66  60 E6        29.96R
6HR MIN TEMP:  81; 6HR MAX TEMP:  85;

RENSSELAER +   PTSUNNY   81  64  57 E7        29.96S
VALPARAISO     PTSUNNY   80  67  64 NE5       29.99R
6HR MIN TEMP:  80; 6HR MAX TEMP:  88;


$$

LMZ046-743>745-280100-
SOUTHERN LAKE MICHIGAN

STATION/POSITION TIME  TEMP    WIND        PRES    WAVE
                       AIR SEA DIR/SP/G            HT
                 (UTC) (F)     (DEG/KT/KT) (MB)    (FT)
MICHIGAN CITY    2300   75      20/ 11/ 12   N/A
5NW MICH CITY    0000   76 76   40/ 10/ 12   N/A     2

$$

INZ004-005-014>016-021>024-280100-
NORTH CENTRAL INDIANA

CITY           SKY/WX    TMP DP  RH WIND       PRES   REMARKS
ELKHART        SUNNY     82  61  47 E6        29.99S
GOSHEN         SUNNY     82  66  58 E6        29.99S
6HR MIN TEMP:  82; 6HR MAX TEMP:  86;

LOGANSPORT +   SUNNY     79  59  50 E3        29.98R
PERU/GRISSOM   SUNNY     82  64  55 E6        29.96S
6HR MIN TEMP:  81; 6HR MAX TEMP:  85;

ROCHESTER +    SUNNY     82  64  54 NE5       29.98R
SOUTH BEND     SUNNY     83  63  50 E6        29.99S
6HR MIN TEMP:  83; 6HR MAX TEMP:  89;

WARSAW +       SUNNY     81  64  57 E3        29.99S

$$

INZ006>009-017-018-025>027-280100-
NORTHEAST INDIANA

CITY           SKY/WX    TMP DP  RH WIND       PRES   REMARKS
ANGOLA *+      SUNNY     82  75  78 E5        30.01R
AUBURN +       SUNNY     82  59  44 NE3       30.01R
FORT WAYNE     MOSUNNY   82  61  48 E7        29.99S
6HR MIN TEMP:  82; 6HR MAX TEMP:  86;

HUNTINGTON +   SUNNY     81  62  52 E5        29.98R
6HR MIN TEMP:  81; 6HR MAX TEMP:  85;


$$

INZ028-029-035-036-043>045-051>053-280100-
WEST CENTRAL INDIANA

CITY           SKY/WX    TMP DP  RH WIND       PRES   REMARKS
CRAWFORDSVL +  MOSUNNY   80  69  69 NE3         N/A
6HR MIN TEMP:  78; 6HR MAX TEMP:  83; 6HR PCP:  0.05;

GREENCASTLE +  SUNNY     82  68  61 NE5       29.95R
LAFAYETTE      PTSUNNY   81  70  69 E13       29.95R
6HR MIN TEMP:  81; 6HR MAX TEMP:  84;

TERRE HAUTE    SUNNY     84  74  71 NE7       29.93R
6HR MIN TEMP:  84; 6HR MAX TEMP:  90;


$$

INZ030>032-037>040-046>048-054>057-064-065-280100-
CENTRAL INDIANA

CITY           SKY/WX    TMP DP  RH WIND       PRES   REMARKS
COLUMBUS       MOSUNNY   82  72  69 NE5       29.94R
FRANKFORT +    MOSUNNY   80  73  78 NE6       29.99R
6HR MIN TEMP:  80; 6HR MAX TEMP:  85;

GREENWOOD *+   MOSUNNY   82  68  61 E5        29.95
INDIANAPOLIS   PTSUNNY   83  72  69 NE13      29.94R
6HR MIN TEMP:  82; 6HR MAX TEMP:  89;

-EAGLE CREEK   MOSUNNY   82  71  69 NE8       29.95R
6HR MIN TEMP:  81; 6HR MAX TEMP:  87;

KOKOMO *+      SUNNY     81  66  61 E5        29.97R
6HR MIN TEMP:  79; 6HR MAX TEMP:  84;

MARION +       MOSUNNY   80  64  58 E5        29.98S HAZE
MT COMFORT *+  MOSUNNY   81  81 100 E7        29.96S
SHELBYVILLE    MOSUNNY   84  74  71 NE3       29.94R
6HR MIN TEMP:  83; 6HR MAX TEMP:  88;

ZIONSVILLE +   MOSUNNY   81  71  71 NE3       29.97R
6HR MIN TEMP:  81; 6HR MAX TEMP:  86;


$$

INZ033-034-041-042-049-050-058-059-280100-
EAST CENTRAL INDIANA

CITY           SKY/WX    TMP DP  RH WIND       PRES   REMARKS
MUNCIE         CLOUDY    81  71  71 E6        29.98R
6HR MIN TEMP:  76; 6HR MAX TEMP:  84; 6HR PCP: TRACE;


$$

INZ060-061-067>069-081>083-085>088-280100-
SOUTHWEST INDIANA

CITY           SKY/WX    TMP DP  RH WIND       PRES   REMARKS
EVANSVILLE     MOSUNNY   87  75  67 SE3       29.91S HX  96
6HR MIN TEMP:  86; 6HR MAX TEMP:  90;

HUNTINGBURG *+ SUNNY     84  75  74 S3        29.92S
6HR MIN TEMP:  84; 6HR MAX TEMP:  90;

WASHINGTON +   PTSUNNY   86  76  71 S3        29.91R HX  95
6HR MIN TEMP:  82; 6HR MAX TEMP:  88; 6HR PCP:  0.05;


$$

INZ062-063-066-070>080-084-089>092-280100-
SOUTH CENTRAL AND SOUTHEAST INDIANA

CITY           SKY/WX    TMP DP  RH WIND       PRES   REMARKS
BLOOMINGTON    MOSUNNY   85  75  72 E5        29.94S
6HR MIN TEMP:  83; 6HR MAX TEMP:  88;

MADISON *+     CLEAR     84  73  70 CALM      29.96R
NORTH VERNON + PTCLDY    86  70  58 CALM      29.95R
SEYMOUR +      MOSUNNY   88  73  62 CALM      29.93R HX  96

$$




USA.gov is the U.S. government's official web portal to all federal, state and local government web resources and services.